This demonstration page uses our WeatherBlox Daily Observations layout. Learn more.

Left ArrowRight Arrow

44.8408, -93.29828

Hourly Observations for March 25, 2015

Temp ( °F °C ) Dew Point ( °F °C ) Humidity (%) Winds ( mph kmh ) Pressure ( in mb ) Visibility ( mi km ) Precip ( " mm )
12:29 am 00:29 Cloudy with Light Snow 31 -0.6 30 -1.1 96 96 SE 6 9 29.97 1015 1 2 0.01 0.25
12:51 am 00:51 Cloudy with Light Snow 30 -1 30 -1 100 100 SE 5 7 29.94 1014 2 2 0.02 0.51
12:53 am 00:53 Cloudy with Light Snow 31 -0.6 30 -1.1 96 96 SE 6 9 29.92 1013 2 2 0.02 0.51
1:05 am 01:05 Cloudy with Mist and Fog 31 -0.6 30 -1.1 96 96 SE 6 9 29.94 1014 3 5 0.00 0.03
1:21 am 01:21 Cloudy with Mist and Fog 31 -0.6 30 -1.1 96 96 SE 6 9 29.94 1014 3 5 0.00 0.03
1:44 am 01:44 Cloudy with Mist and Fog 31 -0.6 30 -1.1 96 96 SSE 5 7 29.94 1014 4 6 0.00 0.03
1:53 am 01:53 Cloudy with Mist and Fog 32 0 30 -1.1 92 92 SSE 5 7 29.90 1013 4 6 0.00 0.03
2:53 am 02:53 Cloudy with Mist and Fog 31 -0.6 30 -1.1 96 96 SSE 6 9 29.87 1012 2 3 0.00 0.00
3:53 am 03:53 Cloudy with Mist and Fog 32 0 30 -1.1 92 92 SSE 7 11 29.84 1011 2 3 0.00 0.00
4:01 am 04:01 Cloudy with Mist and Fog 32 0 31 -0.6 96 96 S 6 9 29.88 1012 2 3 0.00 0.00
4:40 am 04:40 Cloudy with Mist and Fog 32 0 30 -1 93 93 S 7 11 29.85 1011 1 2 0.00 0.00
4:53 am 04:53 Cloudy with Mist and Fog 32 0 31 -0.6 96 96 SSW 7 11 29.83 1010 1 2 0.00 0.00
5:06 am 05:06 Cloudy with Mist and Fog 32 0 30 -1 93 93 SSW 8 13 29.85 1011 2 2 0.00 0.00
5:25 am 05:25 Cloudy with Mist and Fog 32 0 31 -0.6 96 96 SW 10 17 29.85 1011 1 2 0.00 0.00
5:48 am 05:48 Cloudy with Mist and Fog 32 0 32 0 100 100 SSW 10 17 29.85 1011 2 3 0.00 0.00
5:53 am 05:53 Cloudy with Mist and Fog 33 0.6 32 0 96 96 SSW 10 17 29.81 1010 2 3 0.00 0.00
6:17 am 06:17 Cloudy with Mist and Fog 33 0.6 32 0 96 96 SW 9 15 29.85 1011 2 3 0.00 0.00
6:33 am 06:33 Cloudy with Mist and Fog 33 0.6 32 0 96 96 SSW 7 11 29.83 1010 3 5 0.00 0.00
6:53 am 06:53 Cloudy with Mist and Fog 33 0.6 32 0 96 96 SW 9 15 29.81 1009 3 5 0.00 0.00
7:15 am 07:15 Cloudy with Mist and Fog 34 1.1 32 0 92 92 SW 12 19 29.85 1011 5 8 0.00 0.00
9:53 am 09:53 Cloudy 35 1.7 29 -1.7 78 78 W 13 20 29.83 1010 10 16 0.00 0.00
10:53 am 10:53 Cloudy 36 2.2 28 -2.2 73 73 W 22 35 29.85 1011 10 16 0.00 0.00
11:53 am 11:53 Cloudy 36 2.2 28 -2.2 73 73 W 17 28 29.88 1012 10 16 0.00 0.00
12:53 pm 12:53 Cloudy 37 2.8 28 -2.2 70 70 W 20 31 29.91 1013 10 16 0.00 0.00
1:53 pm 13:53 Cloudy 36 2.2 27 -2.8 70 70 W 26 43 29.95 1014 10 16 0.00 0.00
2:53 pm 14:53 Cloudy 38 3.3 27 -2.8 65 65 W 22 35 29.96 1014 10 16 0.00 0.00
3:24 pm 15:24 Cloudy 37 3 27 -3 65 65 W 17 28 30.00 1016 10 16 0.00 0.00
3:53 pm 15:53 Cloudy 38 3.3 26 -3.3 62 62 WNW 24 39 29.98 1015 10 16 0.00 0.00
4:27 pm 16:27 Cloudy 37 2.8 26 -3.3 65 65 W 23 37 30.00 1016 10 16 0.00 0.00
4:53 pm 16:53 Cloudy 37 2.8 26 -3.3 65 65 W 21 33 30.01 1016 10 16 0.00 0.00
5:53 pm 17:53 Cloudy 37 2.8 25 -3.9 62 62 WNW 23 37 30.03 1017 10 16 0.00 0.00
6:53 pm 18:53 Cloudy 36 2.2 25 -3.9 64 64 W 17 28 30.05 1018 10 16 0.00 0.00
7:53 pm 19:53 Cloudy 36 2.2 24 -4.4 62 62 W 17 28 30.05 1018 10 16 0.00 0.00
8:53 pm 20:53 Cloudy 36 2.2 24 -4.4 62 62 W 16 26 30.07 1018 10 16 0.00 0.00
9:53 pm 21:53 Cloudy 36 2.2 23 -5 59 59 WNW 16 26 30.09 1019 10 16 0.00 0.00
10:53 pm 22:53 Mostly Clear 34 1.1 22 -5.6 61 61 WNW 13 20 30.08 1019 10 16 0.00 0.00
11:53 pm 23:53 Mostly Clear 33 0.6 23 -5 66 66 W 10 17 30.09 1019 10 16 0.00 0.00

Powered by AerisWeather